Location: Newark
(0.5300°S, 127.4800°E)
Time: 06:00:24
(UTC+00:00)

A-11 Canister half - Pass Details

Date: 19 September 2019
Orbit: 1514 x 1686 km, 47.2° (Epoch: 21 October)

Event Time Altitude Azimuth Distance (km) Brightness Sun altitude
Rises 10:02:07 0° 330° (NNW) 4,714 12.0 -9.5°
Reaches altitude 10° 10:05:14 10° 335° (NNW) 3,753 11.4 -10.3°
Maximum altitude 10:14:31 56° 51° (NE) 1,869 9.2 -12.6°
Drops below altitude 10° 10:24:09 10° 126° (SE) 3,895 10.6 -15.0°
Enters shadow 10:24:12 10° 126° (SE) 3,910 10.6 -15.1°
Sets 10:27:26 0° 130° (SE) 4,902 - -15.9°
